Cedar Rapids, IA

6:19 AM CST on November 13, 2019 (GMT -0600)
The Eastern Iowa Airport

Weather History for KCID - September, 2019

Change the Weather History Date:

Sunday, September 22, 2019

  Actual Average Record
Temperature  
Mean Temperature 62 °F 60 °F  
Max Temperature 71 °F 72 °F 94 °F (1930)
Min Temperature 53 °F 48 °F 29 °F (1974)
Degree Days  
Heating Degree Days 3 6  
Month to date heating degree days 15 75  
Since 1 July heating degree days 23 94  
Cooling Degree Days 0 1  
Month to date cooling degree days 118 64  
Year to date cooling degree days 770 732  
Growing Degree Days 14 (Base 50)    
Moisture  
Dew Point 66 °F    
Average Humidity 92    
Maximum Humidity 100    
Minimum Humidity 84    
Precipitation  
Precipitation 1.24 in 0.11 in 2.14 in (2000)
Month to date precipitation 4.37 2.41  
Year to date precipitation 32.22 27.71  
Sea Level Pressure  
Sea Level Pressure 29.87 in    
Wind  
Wind Speed 7 mph (WSW)    
Max Wind Speed 25 mph    
Max Gust Speed 34 mph    
Visibility 6 miles    
Events Rain , Thunderstorm    
T = Trace of Precipitation, MM = Missing Value Source: NWS Daily Summary

Daily Weather History Graph

Daily Weather History Graph

Search for Another Location

Airport or City:

Astronomy

Sep. 22, 2019 Rise Set
Actual Time 6:54 AM CDT 7:04 PM CDT
Civil Twilight 6:26 AM CDT 7:32 PM CDT
Nautical Twilight 5:53 AM CDT 8:04 PM CDT
Astronomical Twilight 5:20 AM CDT 8:37 PM CDT
Moon No Moon Rise 3:06 PM CDT (9/22)
Length of Visible Light 13h 05m
Length of Day
12h 10m
Last Quarter, 44% of the Moon is Illuminated
Sep 22
Last Quarter
Sep 28
New
Oct 5
First Quarter
Oct 13
Full
Oct 21
Last Quarter

Hourly Weather History & Observations

Time (CDT) Temp. Dew Point Humidity Pressure Visibility Wind Dir Wind Speed Gust Speed Precip Events Conditions
12:21 AM 71.1 °F 70.0 °F 96% 29.93 in 9.0 mi South 6.9 mph - N/A   Overcast
12:52 AM 71.1 °F 70.0 °F 96% 29.90 in 8.0 mi South 6.9 mph - N/A   Overcast
1:52 AM 71.1 °F 70.0 °F 96% 29.86 in 8.0 mi South 9.2 mph - N/A   Mostly Cloudy
2:52 AM 71.1 °F 70.0 °F 96% 29.84 in 8.0 mi South 10.4 mph - N/A   Scattered Clouds
3:12 AM 71.1 °F 70.0 °F 96% 29.85 in 6.0 mi SSW 11.5 mph 19.6 mph 0.01 in Rain , Thunderstorm Light Rain
3:23 AM 71.1 °F 70.0 °F 96% 29.86 in 3.0 mi SSW 11.5 mph - 0.03 in Rain , Thunderstorm Rain
3:29 AM 71.1 °F 70.0 °F 96% 29.86 in 1.8 mi SSW 16.1 mph 26.5 mph 0.13 in Rain , Thunderstorm Heavy Rain
3:40 AM 71.1 °F 70.0 °F 96% 29.85 in 3.0 mi SW 10.4 mph - 0.17 in Rain Rain
3:52 AM 70.0 °F 70.0 °F 100% 29.84 in 6.0 mi SSW 5.8 mph - 0.18 in Rain Light Rain
3:59 AM 70.0 °F 70.0 °F 100% 29.85 in 6.0 mi SW 4.6 mph - 0.01 in Rain Light Rain
4:15 AM 70.0 °F 70.0 °F 100% 29.86 in 6.0 mi SSW 3.5 mph - 0.02 in Rain Light Rain
4:36 AM 70.0 °F 70.0 °F 100% 29.86 in 3.0 mi Calm Calm - 0.05 in Rain Rain
4:48 AM 69.8 °F 69.8 °F 100% 29.85 in 2.5 mi Calm Calm - 0.08 in Rain Rain
4:52 AM 70.0 °F 70.0 °F 100% 29.84 in 2.0 mi Calm Calm - 0.10 in Rain Heavy Rain
5:00 AM 70.0 °F 70.0 °F 100% 29.85 in 1.8 mi Calm Calm - 0.03 in Rain Rain
5:20 AM 69.1 °F 69.1 °F 100% 29.85 in 2.0 mi Calm Calm - 0.12 in Rain Rain
5:52 AM 66.9 °F 66.0 °F 97% 29.86 in 3.0 mi NNW 12.7 mph - 0.36 in Rain Heavy Rain
6:38 AM 66.0 °F 66.0 °F 100% 29.87 in 7.0 mi NW 8.1 mph - 0.12 in Rain Light Rain
6:52 AM 66.0 °F 66.0 °F 100% 29.86 in 8.0 mi WNW 4.6 mph - 0.13 in Rain Light Rain
7:52 AM 64.9 °F 64.9 °F 100% 29.85 in 7.0 mi SSW 4.6 mph - 0.02 in Rain Light Rain
8:52 AM 64.9 °F 64.9 °F 100% 29.87 in 6.0 mi SSW 5.8 mph - 0.03 in Rain Light Rain
9:20 AM 64.9 °F 64.9 °F 100% 29.86 in 6.0 mi Calm Calm - 0.01 in Rain Light Rain
9:52 AM 66.0 °F 64.9 °F 96% 29.88 in 5.0 mi SW 4.6 mph - 0.04 in Rain Light Rain
9:55 AM 66.0 °F 64.9 °F 96% 29.89 in 4.0 mi SSW 5.8 mph - 0.00 in Rain Rain
10:52 AM 66.0 °F 66.0 °F 100% 29.86 in 6.0 mi WSW 5.8 mph - 0.03 in Rain Light Rain
10:54 AM 66.9 °F 66.0 °F 97% 29.87 in 7.0 mi WSW 5.8 mph - 0.00 in Rain Light Rain
11:26 AM 66.0 °F 66.0 °F 100% 29.88 in 1.5 mi West 8.1 mph - 0.03 in Rain Heavy Rain
11:31 AM 66.0 °F 66.0 °F 100% 29.88 in 0.8 mi West 6.9 mph - 0.06 in Rain Heavy Rain
11:43 AM 66.0 °F 66.0 °F 100% 29.88 in 1.0 mi West 9.2 mph - 0.11 in Rain Heavy Rain
11:52 AM 66.0 °F 66.0 °F 100% 29.87 in 2.0 mi WSW 9.2 mph - 0.13 in Rain Heavy Rain
12:01 PM 66.0 °F 66.0 °F 100% 29.88 in 5.0 mi West 9.2 mph - 0.00 in Rain Heavy Rain
12:11 PM 66.0 °F 66.0 °F 100% 29.88 in 2.0 mi West 9.2 mph - 0.02 in Rain Heavy Rain
12:15 PM 66.0 °F 66.0 °F 100% 29.88 in 3.0 mi WSW 8.1 mph - 0.03 in Rain Heavy Rain
12:23 PM 64.9 °F 64.9 °F 100% 29.88 in 1.8 mi West 8.1 mph - 0.05 in Rain Heavy Rain
12:45 PM 66.0 °F 66.0 °F 100% 29.88 in 1.8 mi West 6.9 mph - 0.09 in Rain Rain
12:52 PM 66.0 °F 66.0 °F 100% 29.87 in 1.8 mi West 6.9 mph - 0.10 in Rain Light Rain
12:54 PM 66.0 °F 66.0 °F 100% 29.88 in 3.0 mi West 6.9 mph - 0.00 in Rain Light Rain
1:04 PM 66.0 °F 66.0 °F 100% 29.88 in 3.0 mi West 5.8 mph - 0.01 in Rain Rain
1:52 PM 66.9 °F 66.0 °F 97% 29.81 in 10.0 mi NE 6.9 mph - 0.03 in   Mostly Cloudy
2:45 PM 68.0 °F 64.9 °F 90% 29.83 in 10.0 mi South 3.5 mph - N/A   Overcast
2:52 PM 68.0 °F 64.9 °F 90% 29.82 in 10.0 mi South 3.5 mph - N/A   Overcast
3:13 PM 66.9 °F 66.0 °F 97% 29.82 in 2.0 mi Calm Calm - 0.00 in Rain Light Rain
3:25 PM 68.0 °F 66.0 °F 93% 29.82 in 10.0 mi Calm Calm - 0.00 in   Overcast
3:45 PM 68.0 °F 64.9 °F 90% 29.82 in 10.0 mi SW 3.5 mph - 0.00 in   Overcast
3:52 PM 69.1 °F 64.9 °F 87% 29.81 in 10.0 mi WSW 4.6 mph - 0.00 in   Overcast
4:52 PM 68.0 °F 66.9 °F 96% 29.82 in 10.0 mi SW 6.9 mph - 0.01 in   Overcast
5:52 PM 68.0 °F 64.9 °F 90% 29.82 in 10.0 mi SW 8.1 mph - N/A   Overcast
6:52 PM 66.9 °F 66.0 °F 97% 29.84 in 10.0 mi West 8.1 mph - N/A   Overcast
7:15 PM 66.9 °F 66.0 °F 97% 29.86 in 5.0 mi WNW 8.1 mph - 0.00 in Rain Light Rain
7:46 PM 62.6 °F 60.8 °F 94% 29.89 in 10.0 mi NW 15.0 mph 23.0 mph 0.08 in   Overcast
7:52 PM 62.1 °F 60.1 °F 93% 29.88 in 10.0 mi NW 13.8 mph 24.2 mph 0.08 in   Overcast
8:52 PM 61.0 °F 59.0 °F 93% 29.91 in 10.0 mi NNW 17.3 mph 23.0 mph N/A   Overcast
8:54 PM 61.0 °F 57.9 °F 90% 29.91 in 10.0 mi NNW 17.3 mph 23.0 mph N/A   Overcast
8:56 PM 61.0 °F 57.9 °F 90% 29.91 in 10.0 mi NNW 15.0 mph 23.0 mph N/A   Overcast
9:52 PM 59.0 °F 57.9 °F 96% 29.93 in 10.0 mi NW 6.9 mph - N/A   Partly Cloudy
10:52 PM 57.0 °F 57.0 °F 100% 29.94 in 10.0 mi NW 9.2 mph - N/A   Clear
11:52 PM 55.0 °F 55.0 °F 100% 29.95 in 10.0 mi WNW 5.8 mph - N/A   Clear